Regional Weather Roundup
Issued by NWS Little Rock, AR

Home | Current Version | Previous Version | Graphics & Text | Print | Product List | Glossary On
Versions: 1 2 3 4 5 6 7 8 9 10 11 12 13 14 15 16 17 18 19 20 21 22 23 24 25 26 27 28 29 30 31 32 33 34 35 36 37 38 39 40 41 42 43 44 45 46 47 48 49 50
534
ASUS44 KLZK 251610
RWRLZK
ARKANSAS STATE WEATHER ROUNDUP
NATIONAL WEATHER SERVICE LITTLE ROCK AR
ISSUED BY NATIONAL WEATHER SERVICE MEMPHIS TN
1100 AM CDT WED APR 25 2018

NOTE: "FAIR" INDICATES FEW OR NO CLOUDS BELOW 12,000 FEET WITH NO
SIGNIFICANT WEATHER AND/OR OBSTRUCTIONS TO VISIBILITY.

ARZ001-003-010-029-251700-
NORTHWEST ARKANSAS

CITY           SKY/WX    TMP DP  RH WIND       PRES   REMARKS
FORT SMITH     RAIN      56  53  90 NW10      30.17R FOG
HARRISON       LGT RAIN  53  49  86 NW9       30.16R
BENTONVILLE    LGT RAIN  52  50  93 CALM      30.16F FOG
ROGERS         RAIN      52  51  97 CALM      30.15F FOG
SILOAM SPGS    LGT RAIN  53  51  93 E3        30.16F FOG
HIGHFILL       LGT RAIN  53  50  89 CALM      30.15F FOG
SPRINGDALE     RAIN      52  52 100 N7        30.16F FOG
$$

ARZ004-005-016-251700-
NORTH CENTRAL ARKANSAS

CITY           SKY/WX    TMP DP  RH WIND       PRES   REMARKS
BATESVILLE     CLOUDY    68  46  45 W7        30.07R
FLIPPIN        CLOUDY    57  47  69 W12       30.14R
MTN HOME       CLOUDY    54  48  80 NW7       30.11R
$$

ARZ040-041-251700-
WEST CENTRAL ARKANSAS

CITY           SKY/WX    TMP DP  RH WIND       PRES   REMARKS
MOUNT IDA      CLOUDY    64  56  75 NW6       30.08R
$$

ARZ017-025-026-028-251700-
NORTHEAST ARKANSAS

CITY           SKY/WX    TMP DP  RH WIND       PRES   REMARKS
JONESBORO      FAIR      70  49  47 NW7       30.03F
NEWPORT        FAIR      70  54  56 NW8       30.05S
WALNUT RIDGE   FAIR      67  49  52 CALM      30.04S
BLYTHEVILLE    FAIR      71  55  56 VRB3      30.04S
NW BLYTHEVILLE SUNNY     70  52  52 N3        30.03F
$$

ARZ022-033-042-044-251700-
CENTRAL ARKANSAS

CITY           SKY/WX    TMP DP  RH WIND       PRES   REMARKS
LITTLE ROCK    PTSUNNY   72  57  59 SW6       30.06F
JACKSONVILLE   CLOUDY    71  58  64 NW8       30.06S
SEARCY         FAIR      72  61  68 NW8       30.07R
HOT SPRINGS    CLOUDY    69  58  67 CALM      30.08R
RUSSELLVILLE   CLOUDY    61  52  72 NW5       30.08F
$$

ARZ036-251700-
EAST ARKANSAS

CITY           SKY/WX    TMP DP  RH WIND       PRES   REMARKS
WEST MEMPHIS   FAIR      70  62  76 NW8       30.04S
$$

ARZ050-070-073-251700-
SOUTHWEST ARKANSAS

CITY           SKY/WX    TMP DP  RH WIND       PRES   REMARKS
TEXARKANA      CLOUDY    64  54  69 NW6       30.07R
EL DORADO      FAIR      70  59  68 S12       30.06S
DEQUEEN        CLOUDY    65  59  81 NW5       30.08R
$$

ARZ056-057-069-251700-
SOUTHEAST ARKANSAS

CITY           SKY/WX    TMP DP  RH WIND       PRES   REMARKS
PINE BLUFF     FAIR      73  54  51 S6        30.06S
STUTTGART      FAIR      71  57  61 W6        30.06S
MONTICELLO     FAIR      73  54  51 SW5       30.07R
$$





USA.gov is the U.S. government's official web portal to all federal, state and local government web resources and services.